Location: Dalton
(34.7700°N, 84.9700°W)
Time: 01:37:19
(UTC-04:00)

Envisat - Pass Details

Date: 16 October 2017
Orbit: 764 x 766 km, 98.2° (Epoch: 18 October)

Event Time Altitude Azimuth Distance (km) Brightness Sun altitude
Exits shadow 22:26:29 12° 319° (NW) 2,135 5.8 -41.9°
Drops below altitude 10° 22:27:00 10° 323° (NW) 2,305 6.0 -42.0°
Sets 22:29:37 0° 335° (NNW) 3,235 6.7 -42.5°
